| time (UTC) | temp F | wind direction | speed MPH | gust MPH | rain 1hr in | rain 24hr in | rain mn in | humidity % | barometer mb |
| 20260507021003 | 60 | 296 | 10.0 | 15.0 | 0.00 | 0.00 | 0.00 | 36 | 1015.3 |
| 20260507020003 | 60 | 297 | 13.0 | 22.0 | 0.00 | 0.00 | 0.00 | 36 | 1015.3 |
| 20260507015003 | 61 | 290 | 16.0 | 26.0 | 0.00 | 0.00 | 0.00 | 35 | 1015.2 |
| 20260507014004 | 61 | 290 | 18.0 | 28.0 | 0.00 | 0.00 | 0.00 | 32 | 1015.1 |
| 20260507013003 | 61 | 290 | 18.0 | 30.0 | 0.00 | 0.00 | 0.00 | 33 | 1015.1 |
| 20260507012003 | 61 | 292 | 17.0 | 27.0 | 0.00 | 0.00 | 0.00 | 34 | 1015.2 |
| 20260507011214 | 61 | 294 | 15.0 | 22.0 | 0.00 | 0.00 | 0.00 | 36 | 1015.1 |
| 20260507010003 | 61 | 298 | 15.0 | 22.0 | 0.00 | 0.00 | 0.00 | 34 | 1015.2 |
| 20260507005004 | 62 | 301 | 12.0 | 22.0 | 0.00 | 0.00 | 0.00 | 32 | 1015.2 |
| 20260507004003 | 62 | 296 | 13.0 | 19.0 | 0.00 | 0.00 | 0.00 | 31 | 1015.2 |
| 20260507003003 | 62 | 289 | 13.0 | 21.0 | 0.00 | 0.00 | 0.00 | 31 | 1015.3 |
| 20260507002213 | 62 | 293 | 15.0 | 26.0 | 0.00 | 0.00 | 0.00 | 30 | 1015.3 |
| 20260507001003 | 62 | 287 | 13.0 | 18.0 | 0.00 | 0.00 | 0.00 | 31 | 1015.1 |
| 20260507000004 | 62 | 288 | 14.0 | 20.0 | 0.00 | 0.00 | 0.00 | 31 | 1015.2 |
| 20260506235003 | 63 | 297 | 15.0 | 22.0 | 0.00 | 0.00 | 0.00 | 31 | 1015.3 |
| 20260506234213 | 63 | 296 | 15.0 | 22.0 | 0.00 | 0.00 | 0.00 | 30 | 1015.3 |
| 20260506233003 | 64 | 296 | 14.0 | 22.0 | 0.00 | 0.00 | 0.00 | 30 | 1015.2 |
| 20260506232003 | 64 | 297 | 14.0 | 21.0 | 0.00 | 0.00 | 0.00 | 31 | 1015.2 |
| 20260506231003 | 64 | 297 | 15.0 | 20.0 | 0.00 | 0.00 | 0.00 | 31 | 1015.2 |
| 20260506230005 | 64 | 292 | 13.0 | 21.0 | 0.00 | 0.00 | 0.00 | 29 | 1015.2 |
| 20260506225003 | 65 | 292 | 14.0 | 22.0 | 0.00 | 0.00 | 0.00 | 27 | 1015.3 |
| 20260506224003 | 65 | 292 | 13.0 | 19.0 | 0.00 | 0.00 | 0.00 | 27 | 1015.4 |
| 20260506223004 | 65 | 290 | 13.0 | 21.0 | 0.00 | 0.00 | 0.00 | 25 | 1015.5 |
| 20260506222003 | 65 | 291 | 14.0 | 23.0 | 0.00 | 0.00 | 0.00 | 26 | 1015.6 |
| 20260506221003 | 66 | 291 | 16.0 | 23.0 | 0.00 | 0.00 | 0.00 | 25 | 1015.6 |
| 20260506220003 | 66 | 292 | 16.0 | 24.0 | 0.00 | 0.00 | 0.00 | 22 | 1015.7 |
| 20260506215003 | 67 | 287 | 14.0 | 22.0 | 0.00 | 0.00 | 0.00 | 22 | 1015.6 |
| 20260506214003 | 67 | 284 | 12.0 | 20.0 | 0.00 | 0.00 | 0.00 | 23 | 1015.6 |
| 20260506213003 | 67 | 276 | 12.0 | 18.0 | 0.00 | 0.00 | 0.00 | 24 | 1015.5 |
| 20260506212212 | 68 | 275 | 12.0 | 18.0 | 0.00 | 0.00 | 0.00 | 23 | 1015.6 |
| 20260506211003 | 69 | 292 | 15.0 | 23.0 | 0.00 | 0.00 | 0.00 | 25 | 1015.6 |
| 20260506210212 | 69 | 293 | 16.0 | 24.0 | 0.00 | 0.00 | 0.00 | 25 | 1015.5 |
| 20260506205214 | 69 | 279 | 16.0 | 23.0 | 0.00 | 0.00 | 0.00 | 26 | 1015.4 |
| 20260506204003 | 70 | 276 | 17.0 | 25.0 | 0.00 | 0.00 | 0.00 | 24 | 1015.3 |
| 20260506203003 | 72 | 288 | 13.0 | 24.0 | 0.00 | 0.00 | 0.00 | 25 | 1015.2 |
| 20260506202003 | 72 | 273 | 11.0 | 21.0 | 0.00 | 0.00 | 0.00 | 28 | 1015.1 |
| 20260506201003 | 70 | 280 | 10.0 | 15.0 | 0.00 | 0.00 | 0.00 | 29 | 1015.2 |
| 20260506200004 | 70 | 259 | 9.0 | 18.0 | 0.00 | 0.00 | 0.00 | 32 | 1015.3 |
| 20260506195003 | 71 | 241 | 11.0 | 17.0 | 0.00 | 0.00 | 0.00 | 30 | 1015.2 |
| 20260506194003 | 70 | 265 | 9.0 | 16.0 | 0.00 | 0.00 | 0.00 | 32 | 1015.3 |
| 20260506193003 | 70 | 256 | 12.0 | 22.0 | 0.00 | 0.00 | 0.00 | 32 | 1015.1 |
| 20260506192003 | 70 | 264 | 11.0 | 18.0 | 0.00 | 0.00 | 0.00 | 33 | 1015.3 |
| 20260506191003 | 69 | 291 | 11.0 | 16.0 | 0.00 | 0.00 | 0.00 | 35 | 1015.4 |
| 20260506190004 | 70 | 299 | 10.0 | 16.0 | 0.00 | 0.00 | 0.00 | 33 | 1015.6 |
| 20260506185003 | 70 | 278 | 9.0 | 20.0 | 0.00 | 0.00 | 0.00 | 34 | 1015.5 |
| 20260506184213 | 69 | 262 | 8.0 | 16.0 | 0.00 | 0.00 | 0.00 | 33 | 1015.6 |
| 20260506183004 | 68 | 295 | 11.0 | 18.0 | 0.00 | 0.00 | 0.00 | 35 | 1015.5 |
| 20260506182003 | 68 | 290 | 11.0 | 17.0 | 0.00 | 0.00 | 0.00 | 35 | 1015.5 |
| 20260506181004 | 68 | 295 | 11.0 | 16.0 | 0.00 | 0.00 | 0.00 | 35 | 1015.4 |
| 20260506180004 | 68 | 287 | 10.0 | 18.0 | 0.00 | 0.00 | 0.00 | 36 | 1015.4 |
| 20260506175004 | 67 | 288 | 10.0 | 18.0 | 0.00 | 0.00 | 0.00 | 36 | 1015.5 |
| 20260506174003 | 67 | 286 | 8.0 | 13.0 | 0.00 | 0.00 | 0.00 | 38 | 1015.4 |
| 20260506173004 | 67 | 281 | 10.0 | 16.0 | 0.00 | 0.00 | 0.00 | 37 | 1015.4 |
| 20260506172003 | 67 | 293 | 10.0 | 14.0 | 0.00 | 0.00 | 0.00 | 37 | 1015.4 |
| 20260506171005 | 67 | 292 | 11.0 | 17.0 | 0.00 | 0.00 | 0.00 | 36 | 1015.4 |
| 20260506170004 | 66 | 293 | 12.0 | 19.0 | 0.00 | 0.00 | 0.00 | 38 | 1015.4 |
| 20260506165003 | 66 | 296 | 11.0 | 16.0 | 0.00 | 0.00 | 0.00 | 37 | 1015.4 |
| 20260506164213 | 66 | 298 | 12.0 | 18.0 | 0.00 | 0.00 | 0.00 | 38 | 1015.4 |
| 20260506163003 | 65 | 300 | 12.0 | 18.0 | 0.00 | 0.00 | 0.00 | 38 | 1015.4 |
| 20260506162003 | 65 | 300 | 13.0 | 19.0 | 0.00 | 0.00 | 0.00 | 38 | 1015.4 |
| 20260506161213 | 65 | 303 | 10.0 | 18.0 | 0.00 | 0.00 | 0.00 | 40 | 1015.4 |
| 20260506160003 | 64 | 305 | 10.0 | 20.0 | 0.00 | 0.00 | 0.00 | 38 | 1015.4 |
| 20260506155212 | 64 | 306 | 10.0 | 17.0 | 0.00 | 0.00 | 0.00 | 39 | 1015.3 |
| 20260506154003 | 64 | 304 | 12.0 | 19.0 | 0.00 | 0.00 | 0.00 | 40 | 1015.3 |
| 20260506153004 | 63 | 301 | 15.0 | 21.0 | 0.00 | 0.00 | 0.00 | 39 | 1015.4 |
| 20260506152003 | 63 | 302 | 15.0 | 21.0 | 0.00 | 0.00 | 0.00 | 38 | 1015.4 |
| 20260506151003 | 63 | 301 | 13.0 | 19.0 | 0.00 | 0.00 | 0.00 | 39 | 1015.4 |
| 20260506150003 | 63 | 301 | 11.0 | 16.0 | 0.00 | 0.00 | 0.00 | 39 | 1015.4 |
| 20260506145003 | 63 | 300 | 12.0 | 18.0 | 0.00 | 0.00 | 0.00 | 37 | 1015.3 |
| 20260506144003 | 62 | 299 | 11.0 | 17.0 | 0.00 | 0.00 | 0.00 | 37 | 1015.2 |
| 20260506143003 | 62 | 302 | 10.0 | 16.0 | 0.00 | 0.00 | 0.00 | 37 | 1015.3 |
| 20260506142003 | 62 | 306 | 10.0 | 17.0 | 0.00 | 0.00 | 0.00 | 38 | 1015.2 |
| 20260506141003 | 62 | 304 | 11.0 | 18.0 | 0.00 | 0.00 | 0.00 | 37 | 1015.2 |
| 20260506140003 | 61 | 306 | 8.0 | 14.0 | 0.00 | 0.00 | 0.00 | 38 | 1015.3 |
| 20260506135214 | 60 | 308 | 6.0 | 12.0 | 0.00 | 0.00 | 0.00 | 40 | 1015.2 |
| 20260506134003 | 59 | 307 | 7.0 | 10.0 | 0.00 | 0.00 | 0.00 | 42 | 1015.2 |
| 20260506133003 | 59 | 308 | 6.0 | 9.0 | 0.00 | 0.00 | 0.00 | 43 | 1015.1 |
| 20260506132003 | 58 | 301 | 4.0 | 6.0 | 0.00 | 0.00 | 0.00 | 43 | 1015.1 |
| 20260506131003 | 57 | 300 | 6.0 | 9.0 | 0.00 | 0.00 | 0.00 | 44 | 1015.1 |
| 20260506130004 | 57 | 307 | 7.0 | 9.0 | 0.00 | 0.00 | 0.00 | 44 | 1015.1 |
| 20260506125003 | 57 | 309 | 7.0 | 10.0 | 0.00 | 0.00 | 0.00 | 43 | 1015.1 |
| 20260506124003 | 57 | 311 | 8.0 | 11.0 | 0.00 | 0.00 | 0.00 | 44 | 1015.0 |
| 20260506123003 | 58 | 305 | 11.0 | 15.0 | 0.00 | 0.00 | 0.00 | 43 | 1015.0 |
| 20260506122213 | 58 | 301 | 12.0 | 15.0 | 0.00 | 0.00 | 0.00 | 42 | 1014.9 |
| 20260506121003 | 58 | 303 | 12.0 | 17.0 | 0.00 | 0.00 | 0.00 | 42 | 1014.9 |
| 20260506120004 | 59 | 305 | 13.0 | 18.0 | 0.00 | 0.00 | 0.00 | 42 | 1014.8 |
| 20260506115003 | 59 | 305 | 13.0 | 19.0 | 0.00 | 0.00 | 0.00 | 42 | 1014.8 |
| 20260506114003 | 58 | 307 | 12.0 | 15.0 | 0.00 | 0.00 | 0.00 | 42 | 1014.9 |
| 20260506113213 | 59 | 307 | 12.0 | 16.0 | 0.00 | 0.00 | 0.00 | 43 | 1014.8 |
| 20260506112003 | 59 | 310 | 11.0 | 15.0 | 0.00 | 0.00 | 0.00 | 42 | 1014.9 |
| 20260506111003 | 59 | 310 | 12.0 | 18.0 | 0.00 | 0.00 | 0.00 | 42 | 1014.9 |
| 20260506110003 | 59 | 309 | 12.0 | 18.0 | 0.00 | 0.00 | 0.00 | 42 | 1014.7 |
| 20260506105004 | 60 | 307 | 13.0 | 21.0 | 0.00 | 0.00 | 0.00 | 40 | 1014.7 |
| 20260506104003 | 60 | 308 | 12.0 | 17.0 | 0.00 | 0.00 | 0.00 | 41 | 1014.7 |
| 20260506103003 | 60 | 308 | 11.0 | 15.0 | 0.00 | 0.00 | 0.00 | 41 | 1014.6 |
| 20260506102003 | 60 | 308 | 10.0 | 14.0 | 0.00 | 0.00 | 0.00 | 41 | 1014.5 |
| 20260506101003 | 60 | 308 | 10.0 | 13.0 | 0.00 | 0.00 | 0.00 | 42 | 1014.5 |
| 20260506100004 | 59 | 310 | 9.0 | 12.0 | 0.00 | 0.00 | 0.00 | 42 | 1014.5 |
| 20260506095003 | 60 | 310 | 9.0 | 12.0 | 0.00 | 0.00 | 0.00 | 43 | 1014.5 |
| 20260506094003 | 59 | 308 | 9.0 | 15.0 | 0.00 | 0.00 | 0.00 | 43 | 1014.6 |
| 20260506093003 | 59 | 306 | 8.0 | 11.0 | 0.00 | 0.00 | 0.00 | 44 | 1014.6 |
| 20260506092003 | 60 | 307 | 8.0 | 11.0 | 0.00 | 0.00 | 0.00 | 43 | 1014.6 |
| 20260506091003 | 60 | 306 | 8.0 | 11.0 | 0.00 | 0.00 | 0.00 | 44 | 1014.6 |
| 20260506090004 | 60 | 307 | 10.0 | 12.0 | 0.00 | 0.00 | 0.00 | 44 | 1014.6 |
| 20260506085214 | 59 | 307 | 9.0 | 12.0 | 0.00 | 0.00 | 0.00 | 45 | 1014.6 |
| 20260506084003 | 60 | 307 | 10.0 | 12.0 | 0.00 | 0.00 | 0.00 | 45 | 1014.6 |
| 20260506083003 | 59 | 308 | 10.0 | 14.0 | 0.00 | 0.00 | 0.00 | 46 | 1014.6 |
| 20260506082003 | 60 | 308 | 10.0 | 12.0 | 0.00 | 0.00 | 0.00 | 47 | 1014.6 |
| 20260506081003 | 60 | 309 | 7.0 | 11.0 | 0.00 | 0.00 | 0.00 | 47 | 1014.6 |
| 20260506073004 | 60 | 310 | 9.0 | 13.0 | 0.00 | 0.00 | 0.00 | 46 | 1014.3 |
| 20260506072003 | 60 | 310 | 10.0 | 14.0 | 0.00 | 0.00 | 0.00 | 47 | 1014.3 |
| 20260506071003 | 60 | 311 | 8.0 | 12.0 | 0.00 | 0.00 | 0.00 | 47 | 1014.3 |
| 20260506062003 | 61 | 308 | 11.0 | 13.0 | 0.00 | 0.00 | 0.00 | 45 | 1014.2 |
| 20260506061003 | 61 | 307 | 10.0 | 12.0 | 0.00 | 0.00 | 0.00 | 45 | 1014.1 |
| 20260506051003 | 62 | 305 | 7.0 | 10.0 | 0.00 | 0.00 | 0.00 | 44 | 1014.3 |
| 20260506045003 | 62 | 307 | 8.0 | 10.0 | 0.00 | 0.00 | 0.00 | 44 | 1014.2 |
| 20260506044003 | 62 | 309 | 7.0 | 8.0 | 0.00 | 0.00 | 0.00 | 44 | 1014.2 |
| 20260506043003 | 60 | 308 | 4.0 | 8.0 | 0.00 | 0.00 | 0.00 | 46 | 1014.2 |
| 20260506042003 | 57 | 325 | 2.0 | 4.0 | 0.00 | 0.00 | 0.00 | 51 | 1014.1 |
| 20260506041003 | 58 | 342 | 3.0 | 5.0 | 0.00 | 0.00 | 0.00 | 50 | 1014.0 |
| 20260506040004 | 61 | 305 | 3.0 | 7.0 | 0.00 | 0.00 | 0.00 | 45 | 1014.0 |
| 20260506035003 | 62 | 280 | 4.0 | 8.0 | 0.00 | 0.00 | 0.00 | 43 | 1014.0 |
| 20260506034003 | 63 | 280 | 2.0 | 5.0 | 0.00 | 0.00 | 0.00 | 43 | 1013.8 |
| 20260506033004 | 63 | 281 | 2.0 | 4.0 | 0.00 | 0.00 | 0.00 | 43 | 1013.8 |
| 20260506032003 | 64 | 263 | 1.0 | 3.0 | 0.00 | 0.00 | 0.00 | 43 | 1013.7 |
| 20260506031003 | 65 | 250 | 4.0 | 6.0 | 0.00 | 0.00 | 0.00 | 41 | 1013.7 |
| 20260506030003 | 66 | 244 | 4.0 | 8.0 | 0.00 | 0.00 | 0.00 | 39 | 1013.7 |
| 20260506025003 | 68 | 204 | 3.0 | 7.0 | 0.00 | 0.00 | 0.00 | 38 | 1013.7 |
| 20260506024003 | 68 | 223 | 5.0 | 9.0 | 0.00 | 0.00 | 0.00 | 37 | 1013.7 |
| 20260506023213 | 69 | 225 | 5.0 | 10.0 | 0.00 | 0.00 | 0.00 | 35 | 1013.6 |
| 20260506022003 | 70 | 219 | 4.0 | 8.0 | 0.00 | 0.00 | 0.00 | 35 | 1013.7 |